User: anonymous   Login
Location: El Corozo
(10.5833°N, 66.9667°W)
Time: 11:53:46
(UTC+00:00)
Language:

Nadezhda 3 Rocket - Orbit

View from above orbital plane
View from above orbital plane
View from above satellite
View from above satellite

Ground track
Ground track

The orbit data is extracted from the following two-line orbital elements,

1 21153U 91019B   24203.74663845  .00000192  00000-0  18091-3 0  9990
2 21153  82.9235  74.5967 0030319 109.2850 317.8373 13.76194119674799
Epoch (UTC): 21 July 2024 17:55:09
Eccentricity: 0.0030319
inclination: 82.9235°
perigee height: 955 km
apogee height: 1000 km
right ascension of ascending node: 74.5967°
argument of perigee: 109.2850°
revolutions per day: 13.76194119
mean anomaly at epoch: 317.8373°
orbit number at epoch: 67479

The dashed part of the orbit path shows where the satellite is in the earth's shadow,  

DLR